Regional Weather Roundup
Issued by NWS

Home | Current Version | Previous Version | Text Only | Print | Product List | Glossary On
Versions: 1 2 3 4 5 6 7 8 9 10 11 12 13 14 15 16 17 18 19 20 21 22 23 24 25 26 27 28 29 30 31 32 33 34 35 36 37 38 39 40 41 42 43 44 45 46 47 48 49 50
000
ASUS46 KPQR 051310
RWROR

OREGON REGIONAL WEATHER ROUNDUP
NATIONAL WEATHER SERVICE PORTLAND OR
600 AM PDT SAT SEP 05 2015

NOTE: "FAIR" INDICATES FEW OR NO CLOUDS BELOW 12,000 FEET WITH
NO SIGNIFICANT WEATHER AND/OR OBSTRUCTIONS TO VISIBILITY.

ORZ001>013-051400-
NORTHWEST OREGON


CITY           SKY/WX    TMP DP  RH WIND       PRES   REMARKS
ASTORIA        PTCLDY    48  46  93 SE3       30.07R
NEWPORT        CLEAR     45  45 100 CALM      30.14R
PORTLAND       MOCLDY    53  48  83 S3        30.08R
VANCOUVER WA   CLOUDY    54  48  80 E3        30.07R
SCAPPOOSE      CLEAR     48  45  89 CALM      30.06S
HILLSBORO      CLEAR     45  43  93 CALM      30.08R
AURORA         CLOUDY    50  47  89 SW3       30.09R
MCMINNVILLE    CLOUDY    46  45  96 N3        30.10R
SALEM          CLOUDY    49  45  86 CALM      30.09R
CORVALLIS      CLOUDY    41  39  93 CALM      30.12R
EUGENE         PTCLDY    42  40  92 SW3       30.11R
$$

ORZ021-028-051400-
SOUTHWEST OREGON


CITY           SKY/WX    TMP DP  RH WIND       PRES   REMARKS
NORTH BEND     CLEAR     48  46  93 SE6       30.13S
BROOKINGS      CLEAR     57  42  57 N7        30.09R
ROSEBURG       CLOUDY    49  48  97 CALM      30.12R
SEXTON SUMMIT  CLEAR     39  36  89 NE8       30.09R WCI  33
MEDFORD        CLEAR     46  41  82 N3        30.11R
$$

ORZ014>016-041-051400-
COLUMBIA GORGE


CITY           SKY/WX    TMP DP  RH WIND       PRES   REMARKS
TROUTDALE      CLOUDY    54  47  77 S3        30.08S
THE DALLES     PTCLDY    56  43  61 NW18      29.97R
$$

ORZ029>031-041-044-049-050-061>064-502-503-505>511-051400-
EASTERN OREGON


CITY           SKY/WX    TMP DP  RH WIND       PRES   REMARKS
REDMOND        CLEAR     32  31  96 S5        30.03R WCI  27
BEND           CLEAR     37  32  81 SW5       30.04R WCI  34
PRINEVILLE     CLEAR     37  34  87 N5        30.03R WCI  34
KLAMATH FALLS  PTCLDY    33  29  85 SE5       30.08R WCI  29
LAKEVIEW       CLOUDY    25  21  86 CALM        N/A  VSB 1/2
HERMISTON      RAIN      52  47  83 SW8       29.93R
PENDLETON      LGT RAIN  49  46  90 W3        29.93R
JOHN DAY       CLOUDY    44  42  92 W6        29.98R
MEACHAM        RAIN      41  39  93 SW5       29.93R
LA GRANDE      CLOUDY    41  32  70 SE7       29.95S
BAKER CITY     LGT RAIN  40  39  97 W6        29.95R
BURNS          MOCLDY    36  34  92 SW5       30.01R WCI  32
ROME             N/A     41  33  73 S8        30.00R
ONTARIO        LGT RAIN  49  42  77 MISG      29.97R
$$




USA.gov is the U.S. government's official web portal to all federal, state and local government web resources and services.